Find Starlink 2046

NORAD ID: 47354 Int'l Des: 2021-005 Owner: SPXS Country: US Constellation: starlink operational
LEOCIRCULAR

Live Position

Loading 3D Globe...

About Starlink 2046

Description loading...

Upcoming Passes

Passes for default location (London). Set your location on the main map for personalized predictions.

Altitude History

Loading altitude history...

Two-Line Element Set

1 47354U 21005F 26122.75452954 -.00000409 00000-0 -14044-5 0 9998
2 47354 53.1605 132.6211 0001599 104.7085 255.4094 15.31699009291857
Epoch: May 2, 2026 • Age: 11 hours

Current Status

Altitude 477.1 km
Velocity 7.63 km/s
Sub-Earth Point -20.33°S, 178.99°E
Launch Date Jan 20, 2021
Age 5.2 years
Type internet

Technical Details

Classification Payload
Mass 260.00 kg
Dry Mass 248.00 kg
Total Mass 260.00 kg
Length 0.20 m
Diameter 2.80 m
Span 9.00 m
Shape Box + pan
Manufacturer SPXS
Bus Type Starlink
Phase Status In Orbit
Owner/State SPXS/US

Most Searched